BELINTERSAT-1

Last updated on Mon Feb 16 2026 00:02:49 GMT+0000 (Coordinated Universal Time)

1 41238U 16001A 26046.55069061 .00000111 00000+0 00000+0 0 9997 2 41238 0.0243 81.3352 0001163 227.8030 86.1404 1.00271657 37017
UTC large
Height (km)
Speed (km/s)
/
Latitude / Longitude
Inclination (degrees)
Orbital Period (minutes)
Azimuth
Elevation
Range (km)
Doppler Factor

Next 0 passes for location: London (51.5072 / 0.1276)

Sorry there are no passes over London.